| time (UTC) | temp F | wind direction | speed MPH | gust MPH | rain 1hr in | rain 24hr in | rain mn in | humidity % | barometer mb |
| 20260506014007 | 71 | 8 | 7.0 | 13.0 | 0.00 | 0.29 | 0.16 | 29 | 1011.0 |
| 20260506013504 | 72 | 7 | 5.0 | 13.0 | 0.00 | 0.29 | 0.16 | 31 | 1010.9 |
| 20260506013026 | 71 | 8 | 7.0 | 14.0 | 0.00 | 0.29 | 0.16 | 31 | 1010.8 |
| 20260506012507 | 72 | 8 | 5.0 | 14.0 | 0.00 | 0.29 | 0.16 | 32 | 1010.9 |
| 20260506012004 | 72 | 9 | 5.0 | 13.0 | 0.00 | 0.29 | 0.16 | 32 | 1010.9 |
| 20260506011523 | 72 | 8 | 7.0 | 13.0 | 0.00 | 0.29 | 0.16 | 32 | 1010.9 |
| 20260506011010 | 73 | 11 | 6.0 | 15.0 | 0.00 | 0.29 | 0.16 | 31 | 1010.9 |
| 20260506010508 | 73 | 8 | 6.0 | 17.0 | 0.00 | 0.29 | 0.16 | 31 | 1010.9 |
| 20260506010043 | 74 | 8 | 9.0 | 17.0 | 0.00 | 0.29 | 0.16 | 31 | 1010.8 |
| 20260506005508 | 74 | 8 | 5.0 | 13.0 | 0.00 | 0.29 | 0.16 | 31 | 1010.7 |
| 20260506005004 | 74 | 7 | 6.0 | 14.0 | 0.00 | 0.29 | 0.16 | 30 | 1010.7 |
| 20260506004527 | 74 | 9 | 7.0 | 14.0 | 0.00 | 0.29 | 0.16 | 30 | 1010.6 |
| 20260506004007 | 74 | 360 | 6.0 | 13.0 | 0.00 | 0.29 | 0.16 | 29 | 1010.5 |
| 20260506003504 | 74 | 8 | 6.0 | 13.0 | 0.00 | 0.29 | 0.16 | 28 | 1010.5 |
| 20260506003026 | 74 | 7 | 5.0 | 14.0 | 0.00 | 0.29 | 0.16 | 28 | 1010.4 |
| 20260506002507 | 74 | 8 | 6.0 | 14.0 | 0.00 | 0.29 | 0.16 | 27 | 1010.4 |
| 20260506002004 | 75 | 360 | 6.0 | 14.0 | 0.00 | 0.29 | 0.16 | 28 | 1010.3 |
| 20260506001524 | 76 | 9 | 7.0 | 14.0 | 0.00 | 0.29 | 0.16 | 27 | 1010.3 |
| 20260506001009 | 75 | 360 | 4.0 | 13.0 | 0.00 | 0.29 | 0.16 | 28 | 1010.3 |
| 20260506000508 | 75 | 8 | 7.0 | 13.0 | 0.00 | 0.29 | 0.16 | 28 | 1010.3 |
| 20260506000027 | 76 | 8 | 5.0 | 11.0 | 0.00 | 0.29 | 0.16 | 27 | 1010.3 |
| 20260505235508 | 77 | 7 | 6.0 | 11.0 | 0.00 | 0.29 | 0.16 | 25 | 1010.3 |
| 20260505235004 | 77 | 360 | 4.0 | 9.0 | 0.00 | 0.29 | 0.16 | 26 | 1010.2 |
| 20260505234536 | 76 | 11 | 4.0 | 12.0 | 0.00 | 0.29 | 0.16 | 26 | 1010.1 |
| 20260505234007 | 77 | 360 | 4.0 | 13.0 | 0.00 | 0.29 | 0.16 | 25 | 1010.1 |
| 20260505233503 | 77 | 360 | 7.0 | 13.0 | 0.00 | 0.29 | 0.16 | 25 | 1010.0 |
| 20260505233034 | 76 | 360 | 4.0 | 12.0 | 0.00 | 0.29 | 0.16 | 27 | 1010.0 |
| 20260505232508 | 75 | 360 | 4.0 | 12.0 | 0.00 | 0.29 | 0.16 | 27 | 1010.0 |
| 20260505232003 | 75 | 360 | 4.0 | 12.0 | 0.00 | 0.29 | 0.16 | 26 | 1010.0 |
| 20260505231530 | 76 | 360 | 4.0 | 14.0 | 0.00 | 0.29 | 0.16 | 27 | 1010.0 |
| 20260505231006 | 76 | 360 | 7.0 | 14.0 | 0.00 | 0.29 | 0.16 | 26 | 1010.1 |
| 20260505230504 | 77 | 360 | 6.0 | 17.0 | 0.00 | 0.29 | 0.16 | 24 | 1010.0 |
| 20260505230024 | 77 | 11 | 8.0 | 17.0 | 0.00 | 0.29 | 0.16 | 25 | 1010.0 |
| 20260505225510 | 77 | 8 | 7.0 | 15.0 | 0.00 | 0.29 | 0.16 | 25 | 1010.0 |
| 20260505225006 | 77 | 360 | 8.0 | 15.0 | 0.00 | 0.29 | 0.16 | 25 | 1010.0 |
| 20260505224530 | 78 | 360 | 7.0 | 15.0 | 0.00 | 0.29 | 0.16 | 27 | 1010.0 |
| 20260505224009 | 79 | 360 | 6.0 | 12.0 | 0.00 | 0.29 | 0.16 | 28 | 1010.2 |
| 20260505223512 | 78 | 11 | 3.0 | 12.0 | 0.00 | 0.29 | 0.16 | 30 | 1010.2 |
| 20260505223025 | 77 | 360 | 4.0 | 12.0 | 0.00 | 0.29 | 0.16 | 30 | 1010.2 |
| 20260505222507 | 77 | 360 | 6.0 | 12.0 | 0.00 | 0.29 | 0.16 | 29 | 1010.3 |
| 20260505222006 | 77 | 360 | 4.0 | 14.0 | 0.00 | 0.29 | 0.16 | 29 | 1010.3 |
| 20260505221524 | 77 | 360 | 3.0 | 14.0 | 0.00 | 0.29 | 0.16 | 29 | 1010.4 |
| 20260505221013 | 78 | 9 | 5.0 | 11.0 | 0.00 | 0.29 | 0.16 | 31 | 1010.4 |
| 20260505220504 | 77 | 11 | 5.0 | 11.0 | 0.00 | 0.29 | 0.16 | 30 | 1010.4 |
| 20260505220027 | 77 | 360 | 4.0 | 12.0 | 0.00 | 0.29 | 0.16 | 30 | 1010.4 |
| 20260505215505 | 77 | 360 | 7.0 | 12.0 | 0.00 | 0.29 | 0.16 | 30 | 1010.7 |
| 20260505215005 | 77 | 15 | 5.0 | 11.0 | 0.00 | 0.29 | 0.16 | 29 | 1010.7 |
| 20260505214552 | 77 | 17 | 6.0 | 16.0 | 0.00 | 0.29 | 0.16 | 30 | 1010.8 |
| 20260505214008 | 76 | 12 | 7.0 | 16.0 | 0.00 | 0.29 | 0.16 | 32 | 1010.8 |
| 20260505213507 | 75 | 360 | 8.0 | 16.0 | 0.00 | 0.29 | 0.16 | 33 | 1010.8 |
| 20260505213026 | 75 | 360 | 5.0 | 15.0 | 0.00 | 0.29 | 0.16 | 35 | 1010.8 |
| 20260505212508 | 76 | 360 | 4.0 | 15.0 | 0.00 | 0.29 | 0.16 | 36 | 1010.9 |
| 20260505212006 | 77 | 360 | 7.0 | 15.0 | 0.00 | 0.29 | 0.16 | 31 | 1010.8 |
| 20260505211524 | 76 | 360 | 7.0 | 15.0 | 0.00 | 0.29 | 0.16 | 29 | 1011.0 |
| 20260505211008 | 76 | 360 | 6.0 | 15.0 | 0.00 | 0.29 | 0.16 | 30 | 1011.1 |
| 20260505210510 | 75 | 360 | 8.0 | 17.0 | 0.00 | 0.29 | 0.16 | 31 | 1011.0 |
| 20260505210025 | 76 | 13 | 8.0 | 17.0 | 0.00 | 0.29 | 0.16 | 29 | 1011.3 |
| 20260505205509 | 76 | 12 | 8.0 | 20.0 | 0.00 | 0.29 | 0.16 | 31 | 1011.2 |
| 20260505205010 | 75 | 360 | 9.0 | 20.0 | 0.00 | 0.29 | 0.16 | 30 | 1011.3 |
| 20260505204528 | 75 | 360 | 10.0 | 19.0 | 0.00 | 0.29 | 0.16 | 29 | 1011.2 |
| 20260505204015 | 76 | 360 | 8.0 | 17.0 | 0.00 | 0.29 | 0.16 | 31 | 1011.2 |
| 20260505203508 | 76 | 360 | 8.0 | 17.0 | 0.00 | 0.29 | 0.16 | 29 | 1011.1 |
| 20260505203034 | 76 | 360 | 6.0 | 16.0 | 0.00 | 0.29 | 0.16 | 28 | 1011.2 |
| 20260505202509 | 75 | 10 | 8.0 | 18.0 | 0.00 | 0.29 | 0.16 | 31 | 1011.3 |
| 20260505202013 | 75 | 360 | 11.0 | 24.0 | 0.00 | 0.29 | 0.16 | 30 | 1011.2 |
| 20260505201530 | 75 | 360 | 11.0 | 24.0 | 0.00 | 0.29 | 0.16 | 29 | 1011.3 |
| 20260505201008 | 75 | 360 | 11.0 | 19.0 | 0.00 | 0.29 | 0.16 | 29 | 1011.3 |
| 20260505200509 | 75 | 360 | 10.0 | 17.0 | 0.00 | 0.29 | 0.16 | 29 | 1011.4 |
| 20260505200025 | 75 | 360 | 12.0 | 21.0 | 0.00 | 0.29 | 0.16 | 33 | 1011.5 |
| 20260505195513 | 74 | 8 | 9.0 | 21.0 | 0.00 | 0.29 | 0.16 | 35 | 1011.5 |
| 20260505195010 | 74 | 8 | 10.0 | 20.0 | 0.00 | 0.29 | 0.16 | 35 | 1011.5 |
| 20260505194523 | 74 | 9 | 9.0 | 19.0 | 0.00 | 0.29 | 0.16 | 36 | 1011.5 |
| 20260505194007 | 74 | 10 | 11.0 | 19.0 | 0.00 | 0.29 | 0.16 | 39 | 1011.5 |
| 20260505193510 | 74 | 11 | 10.0 | 19.0 | 0.00 | 0.29 | 0.16 | 40 | 1011.5 |
| 20260505193010 | 74 | 10 | 7.0 | 13.0 | 0.00 | 0.29 | 0.16 | 44 | 1011.7 |
| 20260505192508 | 71 | 9 | 5.0 | 13.0 | 0.00 | 0.29 | 0.16 | 49 | 1011.8 |
| 20260505192006 | 70 | 9 | 2.0 | 6.0 | 0.00 | 0.29 | 0.16 | 54 | 1011.9 |
| 20260505191508 | 70 | 8 | 1.0 | 3.0 | 0.00 | 0.29 | 0.16 | 53 | 1011.8 |
| 20260505191011 | 70 | 9 | 0.0 | 2.0 | 0.00 | 0.29 | 0.16 | 56 | 1012.0 |
| 20260505190502 | 69 | 10 | 0.0 | 4.0 | 0.00 | 0.29 | 0.16 | 54 | 1012.0 |
| 20260505190006 | 69 | 360 | 1.0 | 5.0 | 0.00 | 0.29 | 0.16 | 56 | 1012.1 |
| 20260505185510 | 69 | 11 | 2.0 | 5.0 | 0.00 | 0.29 | 0.16 | 54 | 1012.1 |
| 20260505185004 | 69 | 8 | 1.0 | 5.0 | 0.00 | 0.29 | 0.16 | 55 | 1012.3 |
| 20260505184506 | 70 | 8 | 1.0 | 5.0 | 0.00 | 0.29 | 0.16 | 53 | 1012.3 |
| 20260505184009 | 71 | 360 | 1.0 | 5.0 | 0.00 | 0.29 | 0.16 | 54 | 1012.3 |
| 20260505183504 | 69 | 12 | 2.0 | 5.0 | 0.00 | 0.29 | 0.16 | 55 | 1012.5 |
| 20260505183010 | 69 | 8 | 1.0 | 5.0 | 0.00 | 0.29 | 0.16 | 55 | 1012.5 |
| 20260505182512 | 69 | 360 | 1.0 | 6.0 | 0.00 | 0.29 | 0.16 | 56 | 1012.7 |
| 20260505182007 | 69 | 11 | 2.0 | 6.0 | 0.00 | 0.29 | 0.16 | 58 | 1012.8 |
| 20260505181506 | 69 | 360 | 2.0 | 4.0 | 0.00 | 0.29 | 0.16 | 57 | 1012.9 |
| 20260505181009 | 70 | 360 | 0.0 | 3.0 | 0.00 | 0.29 | 0.16 | 57 | 1013.0 |
| 20260505180505 | 69 | 360 | 0.0 | 3.0 | 0.00 | 0.29 | 0.16 | 57 | 1013.0 |
| 20260505180007 | 69 | 360 | 0.0 | 4.0 | 0.00 | 0.29 | 0.16 | 59 | 1013.1 |
| 20260505175509 | 69 | 360 | 1.0 | 4.0 | 0.00 | 0.29 | 0.16 | 57 | 1013.2 |
| 20260505175003 | 68 | 360 | 1.0 | 5.0 | 0.00 | 0.29 | 0.16 | 61 | 1013.2 |
| 20260505174510 | 67 | 360 | 2.0 | 5.0 | 0.00 | 0.29 | 0.16 | 61 | 1013.2 |
| 20260505174009 | 67 | 360 | 0.0 | 4.0 | 0.00 | 0.29 | 0.16 | 63 | 1013.2 |
| 20260505173503 | 67 | 360 | 2.0 | 4.0 | 0.00 | 0.29 | 0.16 | 64 | 1013.3 |
| 20260505173004 | 67 | 360 | 1.0 | 4.0 | 0.00 | 0.29 | 0.16 | 65 | 1013.2 |
| 20260505172507 | 66 | 8 | 1.0 | 5.0 | 0.00 | 0.29 | 0.16 | 67 | 1013.2 |
| 20260505172008 | 66 | 360 | 2.0 | 5.0 | 0.00 | 0.29 | 0.16 | 68 | 1013.2 |
| 20260505171504 | 67 | 10 | 1.0 | 4.0 | 0.00 | 0.29 | 0.16 | 67 | 1013.2 |
| 20260505171011 | 67 | 360 | 1.0 | 2.0 | 0.00 | 0.29 | 0.16 | 68 | 1013.2 |
| 20260505170505 | 66 | 9 | 0.0 | 2.0 | 0.00 | 0.29 | 0.16 | 68 | 1013.1 |
| 20260505170006 | 65 | 360 | 0.0 | 2.0 | 0.00 | 0.29 | 0.16 | 70 | 1013.1 |
| 20260505165509 | 66 | 360 | 0.0 | 2.0 | 0.00 | 0.29 | 0.16 | 69 | 1013.2 |
| 20260505165006 | 66 | 11 | 0.0 | 4.0 | 0.00 | 0.29 | 0.16 | 70 | 1013.1 |
| 20260505164505 | 66 | 360 | 0.0 | 4.0 | 0.00 | 0.29 | 0.16 | 71 | 1013.1 |
| 20260505164008 | 65 | 360 | 0.0 | 4.0 | 0.00 | 0.29 | 0.16 | 71 | 1013.1 |
| 20260505163505 | 65 | 360 | 1.0 | 3.0 | 0.00 | 0.29 | 0.16 | 72 | 1013.1 |
| 20260505163004 | 65 | 360 | 0.0 | 2.0 | 0.00 | 0.29 | 0.16 | 73 | 1013.0 |
| 20260505162508 | 64 | 360 | 0.0 | 2.0 | 0.00 | 0.29 | 0.16 | 73 | 1013.2 |
| 20260505162008 | 64 | 360 | 0.0 | 2.0 | 0.00 | 0.29 | 0.16 | 75 | 1013.2 |
| 20260505161505 | 64 | 360 | 0.0 | 0.0 | 0.00 | 0.29 | 0.16 | 76 | 1013.2 |
| 20260505161005 | 64 | 360 | 0.0 | 3.0 | 0.00 | 0.29 | 0.16 | 76 | 1013.3 |
| 20260505160505 | 63 | 360 | 0.0 | 3.0 | 0.00 | 0.29 | 0.16 | 76 | 1013.3 |
| 20260505153006 | 62 | 360 | 1.0 | 3.0 | 0.00 | 0.29 | 0.16 | 85 | 1013.0 |
| 20260505152508 | 62 | 360 | 0.0 | 3.0 | 0.00 | 0.29 | 0.16 | 86 | 1013.0 |
| 20260505152007 | 62 | 360 | 0.0 | 3.0 | 0.00 | 0.29 | 0.16 | 88 | 1013.0 |
| 20260505151512 | 62 | 360 | 0.0 | 3.0 | 0.00 | 0.29 | 0.16 | 88 | 1013.0 |
| 20260505151009 | 61 | 360 | 1.0 | 5.0 | 0.00 | 0.29 | 0.16 | 89 | 1012.9 |
| 20260505150510 | 61 | 360 | 2.0 | 5.0 | 0.00 | 0.29 | 0.16 | 89 | 1013.0 |
| 20260505140504 | 60 | 360 | 0.0 | 0.0 | 0.00 | 0.29 | 0.16 | 91 | 1012.6 |
| 20260505125004 | 58 | 360 | 0.0 | 3.0 | 0.00 | 0.29 | 0.16 | 91 | 1011.9 |
| 20260505124527 | 58 | 360 | 0.0 | 3.0 | 0.01 | 0.29 | 0.16 | 91 | 1011.8 |
| 20260505124007 | 58 | 360 | 1.0 | 3.0 | 0.02 | 0.29 | 0.16 | 91 | 1011.7 |
| 20260505123507 | 58 | 360 | 0.0 | 4.0 | 0.02 | 0.29 | 0.16 | 91 | 1011.7 |
| 20260505123025 | 59 | 360 | 1.0 | 4.0 | 0.02 | 0.29 | 0.16 | 91 | 1011.7 |
| 20260505122507 | 59 | 360 | 1.0 | 3.0 | 0.02 | 0.29 | 0.16 | 91 | 1011.6 |
| 20260505122004 | 59 | 360 | 0.0 | 2.0 | 0.02 | 0.29 | 0.16 | 91 | 1011.7 |
| 20260505121526 | 58 | 360 | 0.0 | 2.0 | 0.02 | 0.29 | 0.16 | 91 | 1011.8 |
| 20260505121009 | 58 | 360 | 0.0 | 3.0 | 0.02 | 0.29 | 0.16 | 91 | 1011.7 |
| 20260505120504 | 58 | 360 | 1.0 | 3.0 | 0.02 | 0.29 | 0.16 | 91 | 1011.4 |
| 20260505120031 | 58 | 360 | 1.0 | 3.0 | 0.02 | 0.29 | 0.16 | 91 | 1011.5 |
| 20260505115509 | 58 | 360 | 0.0 | 3.0 | 0.02 | 0.29 | 0.16 | 91 | 1011.6 |
| 20260505115005 | 58 | 360 | 0.0 | 3.0 | 0.02 | 0.29 | 0.16 | 91 | 1011.5 |
| 20260505114526 | 58 | 360 | 0.0 | 4.0 | 0.01 | 0.28 | 0.15 | 91 | 1011.4 |
| 20260505114010 | 58 | 360 | 1.0 | 4.0 | 0.01 | 0.27 | 0.14 | 91 | 1011.3 |
| 20260505113506 | 58 | 360 | 0.0 | 6.0 | 0.01 | 0.27 | 0.14 | 91 | 1011.5 |
| 20260505113027 | 58 | 360 | 3.0 | 6.0 | 0.01 | 0.27 | 0.14 | 91 | 1011.6 |
| 20260505112507 | 58 | 360 | 0.0 | 4.0 | 0.01 | 0.27 | 0.14 | 91 | 1011.9 |
| 20260505112004 | 58 | 360 | 2.0 | 4.0 | 0.01 | 0.27 | 0.14 | 91 | 1011.8 |
| 20260505111528 | 58 | 360 | 1.0 | 5.0 | 0.01 | 0.27 | 0.14 | 91 | 1011.8 |
| 20260505111010 | 58 | 360 | 1.0 | 5.0 | 0.02 | 0.27 | 0.14 | 91 | 1011.7 |
| 20260505110503 | 58 | 360 | 1.0 | 4.0 | 0.03 | 0.27 | 0.14 | 91 | 1011.7 |
| 20260505102001 | 58 | 360 | 4.0 | 8.0 | 0.04 | 0.26 | 0.13 | 91 | 1012.2 |
| 20260505101515 | 58 | 360 | 4.0 | 8.0 | 0.04 | 0.26 | 0.13 | 91 | 1012.5 |
| 20260505101002 | 58 | 360 | 2.0 | 11.0 | 0.03 | 0.25 | 0.12 | 91 | 1012.9 |
| 20260505100505 | 58 | 360 | 3.0 | 11.0 | 0.03 | 0.24 | 0.11 | 91 | 1013.0 |
| 20260505100013 | 58 | 360 | 4.0 | 10.0 | 0.03 | 0.24 | 0.11 | 91 | 1012.8 |
| 20260505095507 | 58 | 360 | 5.0 | 10.0 | 0.03 | 0.24 | 0.11 | 91 | 1012.7 |
| 20260505095005 | 58 | 360 | 3.0 | 9.0 | 0.03 | 0.24 | 0.11 | 91 | 1012.9 |
| 20260505094504 | 58 | 360 | 3.0 | 9.0 | 0.03 | 0.24 | 0.11 | 91 | 1013.0 |
| 20260505094004 | 58 | 55 | 3.0 | 13.0 | 0.03 | 0.24 | 0.11 | 91 | 1012.9 |
| 20260505093502 | 58 | 360 | 6.0 | 13.0 | 0.03 | 0.24 | 0.11 | 91 | 1012.9 |
| 20260505093017 | 58 | 360 | 3.0 | 12.0 | 0.03 | 0.24 | 0.11 | 91 | 1013.2 |
| 20260505092502 | 59 | 360 | 5.0 | 12.0 | 0.03 | 0.23 | 0.10 | 91 | 1013.3 |
| 20260505092004 | 59 | 360 | 4.0 | 13.0 | 0.02 | 0.22 | 0.09 | 91 | 1013.2 |
| 20260505091505 | 59 | 360 | 6.0 | 13.0 | 0.02 | 0.22 | 0.09 | 90 | 1013.2 |
| 20260505091006 | 59 | 360 | 5.0 | 13.0 | 0.03 | 0.22 | 0.09 | 91 | 1013.2 |
| 20260505090505 | 59 | 360 | 6.0 | 13.0 | 0.02 | 0.21 | 0.08 | 90 | 1013.1 |
| 20260505090006 | 59 | 360 | 5.0 | 11.0 | 0.02 | 0.21 | 0.08 | 90 | 1013.0 |
| 20260505085508 | 59 | 360 | 4.0 | 12.0 | 0.03 | 0.21 | 0.08 | 90 | 1013.2 |
| 20260505085005 | 59 | 360 | 5.0 | 12.0 | 0.03 | 0.21 | 0.08 | 90 | 1013.4 |
| 20260505084505 | 59 | 360 | 4.0 | 10.0 | 0.04 | 0.21 | 0.08 | 90 | 1013.5 |
| 20260505084004 | 59 | 360 | 5.0 | 10.0 | 0.05 | 0.21 | 0.08 | 90 | 1013.5 |
| 20260505083510 | 59 | 360 | 4.0 | 9.0 | 0.05 | 0.21 | 0.08 | 90 | 1013.7 |
| 20260505083008 | 59 | 360 | 5.0 | 9.0 | 0.06 | 0.21 | 0.08 | 90 | 1014.1 |
| 20260505082505 | 59 | 360 | 4.0 | 9.0 | 0.05 | 0.20 | 0.07 | 91 | 1014.4 |
| 20260505082006 | 59 | 360 | 2.0 | 8.0 | 0.06 | 0.20 | 0.07 | 91 | 1014.7 |
| 20260505081508 | 59 | 360 | 3.0 | 8.0 | 0.06 | 0.20 | 0.07 | 91 | 1014.7 |
| 20260505081005 | 59 | 360 | 3.0 | 6.0 | 0.05 | 0.19 | 0.06 | 90 | 1014.8 |
| 20260505080504 | 59 | 360 | 2.0 | 5.0 | 0.05 | 0.19 | 0.06 | 90 | 1014.9 |
| 20260505080004 | 59 | 360 | 1.0 | 6.0 | 0.06 | 0.19 | 0.06 | 90 | 1015.0 |
| 20260505075504 | 59 | 360 | 2.0 | 6.0 | 0.05 | 0.18 | 0.05 | 90 | 1015.1 |
| 20260505075004 | 59 | 360 | 3.0 | 6.0 | 0.05 | 0.18 | 0.05 | 90 | 1015.2 |
| 20260505074506 | 60 | 360 | 2.0 | 6.0 | 0.05 | 0.17 | 0.04 | 90 | 1015.3 |
| 20260505074005 | 60 | 360 | 0.0 | 6.0 | 0.04 | 0.16 | 0.03 | 90 | 1015.3 |
| 20260505073505 | 60 | 360 | 3.0 | 6.0 | 0.04 | 0.16 | 0.03 | 90 | 1015.4 |
| 20260505073005 | 60 | 360 | 1.0 | 5.0 | 0.04 | 0.15 | 0.02 | 90 | 1015.6 |
| 20260505072509 | 60 | 360 | 1.0 | 5.0 | 0.05 | 0.15 | 0.02 | 90 | 1015.4 |
| 20260505072004 | 60 | 360 | 1.0 | 4.0 | 0.05 | 0.14 | 0.01 | 90 | 1015.4 |
| 20260505071507 | 60 | 360 | 1.0 | 5.0 | 0.05 | 0.14 | 0.01 | 89 | 1015.4 |
| 20260505071007 | 60 | 360 | 2.0 | 5.0 | 0.06 | 0.14 | 0.01 | 89 | 1015.4 |
| 20260505070506 | 60 | 360 | 1.0 | 4.0 | 0.06 | 0.14 | 0.01 | 89 | 1015.3 |
| 20260505070005 | 60 | 360 | 1.0 | 4.0 | 0.06 | 0.13 | 0.00 | 89 | 1015.3 |
| 20260505065505 | 60 | 360 | 1.0 | 4.0 | 0.06 | 0.13 | 0.13 | 88 | 1015.2 |
| 20260505065005 | 60 | 360 | 1.0 | 4.0 | 0.06 | 0.13 | 0.13 | 88 | 1015.2 |
| 20260505064506 | 60 | 360 | 1.0 | 3.0 | 0.05 | 0.12 | 0.12 | 88 | 1015.3 |
| 20260505064005 | 60 | 360 | 0.0 | 3.0 | 0.06 | 0.12 | 0.12 | 88 | 1015.3 |
| 20260505063505 | 60 | 360 | 0.0 | 4.0 | 0.07 | 0.12 | 0.12 | 87 | 1015.1 |
| 20260505063006 | 60 | 360 | 0.0 | 4.0 | 0.06 | 0.11 | 0.11 | 87 | 1015.1 |
| 20260505062510 | 60 | 360 | 1.0 | 4.0 | 0.06 | 0.10 | 0.10 | 87 | 1015.1 |
| 20260505062008 | 60 | 360 | 0.0 | 5.0 | 0.05 | 0.09 | 0.09 | 86 | 1015.1 |
| 20260505061508 | 60 | 360 | 2.0 | 7.0 | 0.05 | 0.09 | 0.09 | 86 | 1015.2 |
| 20260505061006 | 60 | 360 | 3.0 | 7.0 | 0.04 | 0.08 | 0.08 | 86 | 1015.1 |
| 20260505060505 | 60 | 360 | 1.0 | 4.0 | 0.04 | 0.08 | 0.08 | 86 | 1015.2 |
| 20260505060005 | 60 | 360 | 1.0 | 4.0 | 0.03 | 0.07 | 0.07 | 86 | 1015.1 |
| 20260505055506 | 60 | 360 | 1.0 | 3.0 | 0.04 | 0.07 | 0.07 | 85 | 1015.0 |
| 20260505055004 | 60 | 360 | 1.0 | 3.0 | 0.04 | 0.07 | 0.07 | 85 | 1014.9 |
| 20260505054507 | 60 | 360 | 1.0 | 4.0 | 0.04 | 0.07 | 0.07 | 84 | 1014.9 |
| 20260505054006 | 60 | 360 | 0.0 | 4.0 | 0.04 | 0.06 | 0.06 | 84 | 1014.9 |
| 20260505053504 | 60 | 360 | 1.0 | 4.0 | 0.03 | 0.05 | 0.05 | 84 | 1015.0 |
| 20260505053004 | 60 | 360 | 1.0 | 4.0 | 0.03 | 0.05 | 0.05 | 84 | 1015.1 |
| 20260505052506 | 60 | 360 | 0.0 | 5.0 | 0.02 | 0.04 | 0.04 | 84 | 1015.2 |
| 20260505052009 | 60 | 360 | 0.0 | 6.0 | 0.02 | 0.04 | 0.04 | 84 | 1015.1 |
| 20260505051533 | 60 | 360 | 3.0 | 6.0 | 0.03 | 0.04 | 0.04 | 84 | 1014.9 |
| 20260505051005 | 60 | 360 | 3.0 | 7.0 | 0.03 | 0.04 | 0.04 | 84 | 1014.8 |
| 20260505050509 | 60 | 360 | 2.0 | 7.0 | 0.03 | 0.04 | 0.04 | 84 | 1014.8 |
| 20260505041516 | 62 | 360 | 0.0 | 2.0 | 0.01 | 0.01 | 0.01 | 72 | 1015.4 |
| 20260505041006 | 62 | 360 | 0.0 | 2.0 | 0.01 | 0.01 | 0.01 | 71 | 1015.3 |
| 20260505040506 | 62 | 360 | 0.0 | 3.0 | 0.01 | 0.01 | 0.01 | 68 | 1015.3 |
| 20260505040018 | 63 | 360 | 1.0 | 3.0 | 0.00 | 0.00 | 0.00 | 68 | 1015.4 |
| 20260505035508 | 63 | 360 | 1.0 | 3.0 | 0.00 | 0.00 | 0.00 | 66 | 1015.4 |
| 20260505035004 | 63 | 360 | 0.0 | 5.0 | 0.00 | 0.00 | 0.00 | 64 | 1015.1 |
| 20260505034520 | 63 | 11 | 1.0 | 6.0 | 0.00 | 0.00 | 0.00 | 63 | 1014.9 |
| 20260505034007 | 63 | 6 | 1.0 | 6.0 | 0.00 | 0.00 | 0.00 | 63 | 1014.3 |
| 20260505033504 | 62 | 5 | 1.0 | 8.0 | 0.00 | 0.00 | 0.00 | 62 | 1014.2 |
| 20260505033019 | 62 | 360 | 2.0 | 9.0 | 0.00 | 0.00 | 0.00 | 63 | 1013.9 |
| 20260505032504 | 62 | 360 | 3.0 | 10.0 | 0.00 | 0.00 | 0.00 | 62 | 1013.8 |
| 20260505032003 | 62 | 360 | 4.0 | 12.0 | 0.00 | 0.00 | 0.00 | 62 | 1013.7 |
| 20260505031519 | 61 | 360 | 6.0 | 17.0 | 0.00 | 0.00 | 0.00 | 62 | 1013.6 |
| 20260505031007 | 61 | 360 | 5.0 | 17.0 | 0.00 | 0.00 | 0.00 | 62 | 1013.5 |
| 20260505030503 | 61 | 11 | 8.0 | 17.0 | 0.00 | 0.00 | 0.00 | 63 | 1013.8 |
| 20260505030020 | 61 | 360 | 7.0 | 15.0 | 0.00 | 0.00 | 0.00 | 62 | 1014.2 |
| 20260505025511 | 62 | 360 | 4.0 | 15.0 | 0.00 | 0.00 | 0.00 | 60 | 1014.6 |
| 20260505025006 | 63 | 360 | 7.0 | 15.0 | 0.00 | 0.00 | 0.00 | 57 | 1014.5 |
| 20260505024520 | 63 | 360 | 10.0 | 15.0 | 0.00 | 0.00 | 0.00 | 57 | 1014.3 |
| 20260505024007 | 64 | 360 | 6.0 | 14.0 | 0.00 | 0.00 | 0.00 | 56 | 1014.4 |
| 20260505023504 | 64 | 360 | 3.0 | 8.0 | 0.00 | 0.00 | 0.00 | 50 | 1014.5 |
| 20260505023020 | 64 | 360 | 4.0 | 8.0 | 0.00 | 0.00 | 0.00 | 49 | 1014.6 |
| 20260505022506 | 64 | 360 | 3.0 | 8.0 | 0.00 | 0.00 | 0.00 | 48 | 1014.5 |
| 20260505022006 | 64 | 360 | 2.0 | 6.0 | 0.00 | 0.00 | 0.00 | 52 | 1014.6 |
| 20260505021522 | 64 | 360 | 1.0 | 6.0 | 0.00 | 0.00 | 0.00 | 52 | 1014.5 |
| 20260505021005 | 65 | 360 | 1.0 | 6.0 | 0.00 | 0.00 | 0.00 | 54 | 1014.7 |
| 20260505020502 | 66 | 360 | 0.0 | 3.0 | 0.00 | 0.00 | 0.00 | 51 | 1014.7 |
| 20260505020019 | 66 | 7 | 0.0 | 3.0 | 0.00 | 0.00 | 0.00 | 48 | 1014.7 |
| 20260505015512 | 66 | 7 | 0.0 | 3.0 | 0.00 | 0.00 | 0.00 | 46 | 1014.9 |
| 20260505015003 | 67 | 7 | 0.0 | 4.0 | 0.00 | 0.00 | 0.00 | 44 | 1014.7 |
| 20260505014519 | 67 | 7 | 0.0 | 8.0 | 0.00 | 0.00 | 0.00 | 42 | 1014.8 |